Your browser is no longer supported. Please, upgrade your browser.
Filter
Ticker Owner Relationship Date Transaction Cost #Shares Value ($) #Shares Total SEC Form 4
KFSSWETS LARRY G JRCEO and PresidentApr 29Buy4.644492,0822,062,270Apr 29 09:14 PM
KFSHickey William August JrCOO, CFO and EVPApr 29Buy4.643241,503293,228Apr 29 08:27 PM
UALJojo Linda PEVP and CIOApr 28Buy48.772,500121,92318,792Apr 29 06:08 PM
UALCOMPTON JAMES EVice Chair & Chief Rev OfficerApr 28Buy48.912,00097,82574,556Apr 29 06:07 PM
ACTGGRAZIADIO G LOUIS IIIDirectorApr 27Buy4.4410,00044,371179,931Apr 29 05:27 PM
WTMBARRETTE RAYMOND JOSEPH RENEChief Executive OfficerApr 28Buy825.0010082,50026,452Apr 29 04:48 PM
KFSBAQAR HASSANVice PresidentApr 29Buy4.64152705147,510Apr 29 04:33 PM
THLDFernandes Joel ASenior Vice PresidentSep 28Buy3.963,56214,10628,120Apr 29 04:03 PM
FSPHoxsie Kenneth ADirectorApr 29Buy10.5710,000105,70032,000Apr 29 03:57 PM
OZRKKoefoed William ADirectorApr 28Buy41.781,00041,7831,589Apr 29 03:53 PM
CETINGLIS JAY RDirectorApr 29Buy19.442,00038,88012,066Apr 29 03:38 PM
CETINGLIS JAY RDirectorApr 28Buy19.652,30045,19510,066Apr 29 03:38 PM
CETINGLIS JAY RDirectorApr 27Buy19.853,00059,5507,766Apr 29 03:38 PM
CDEMELLOR ROBERT EChairman (non-executive)Apr 29Buy7.842,00015,676101,354Apr 29 03:04 PM
SCDCOHEN HARRY DCo-Chief CIO of SubadviserApr 27Buy12.6310,000126,30010,000Apr 29 02:04 PM
OVLYHOLDER H RANDOLPH JRDirectorApr 28Buy9.523,94637,56639,632Apr 29 11:28 AM
CCNEDell Joseph E JrExecutive Vice PresidentApr 29Buy17.97142496,814Apr 29 08:57 AM
OPKFROST PHILLIP MD ET ALCEO & ChairmanApr 28Buy10.8310,000108,325159,524,643Apr 29 06:31 AM
ACTGGRAZIADIO G LOUIS IIIDirectorApr 26Buy4.5710,00045,700169,931Apr 28 07:45 PM
KTECPVAM Perlus Microcap Fund, L.P10% OwnerApr 26Buy8.051,33610,755697,559Apr 28 06:18 PM
DRRXTHEEUWES FELIXChairman and CSOApr 26Buy1.25160,000200,0003,396,314Apr 28 05:35 PM
DRRXHOFFMANN DAVEDirectorApr 26Buy1.25200,000250,000248,000Apr 28 05:34 PM
EATEdwards Thomas Jr.SVP & CFOApr 27Buy45.505,500250,22820,056Apr 28 05:09 PM
PSGFRIEDBERG DANIEL M.DirectorApr 27Buy3.73130,000484,4617,033,999Apr 28 05:05 PM
PSGFRIEDBERG DANIEL M.DirectorApr 26Buy3.6541,311150,6416,903,999Apr 28 05:05 PM
SKYFlorea Richard WChief Executive OfficerApr 26Buy9.323,50032,62523,500Apr 28 05:00 PM
HFWAChristensen Gary BDirectorApr 27Buy18.321,00018,32022,000Apr 28 04:54 PM
PSGSagard Capital Partners, L.P.10% OwnerApr 27Buy3.73130,000484,4617,033,999Apr 28 04:39 PM
PSGSagard Capital Partners, L.P.10% OwnerApr 26Buy3.6541,311150,6416,903,999Apr 28 04:39 PM
CATCALHOUN DAVID LDirectorApr 26Buy77.4425,0001,936,00033,129Apr 28 03:52 PM
UBFOMochizuki Robert MicheleDirectorApr 22Buy5.031,2506,288190,608Apr 28 03:04 PM
USGArmario JoseDirectorApr 27Buy28.111,41839,8612,549Apr 28 02:27 PM
AASCHMIDT ULRICHDirectorApr 26Buy10.255,00051,2505,000Apr 28 02:11 PM
WFBIBRACEWELL JOSEPH SExecutive ChairmanApr 28Buy23.30701,63129,860Apr 28 11:37 AM
WFBIBRACEWELL JOSEPH SExecutive ChairmanApr 28Buy23.2172016,709311,759Apr 28 11:37 AM
KFSSchaevitz GaryDirectorApr 27Buy4.452,50011,125316,610Apr 28 11:34 AM
GRIFGamzon Rebecca D10% OwnerApr 27Buy25.761,13029,1095,000Apr 28 10:35 AM
GRIFGamzon MichaelPresident and CEOApr 27Buy25.761,13029,1095,000Apr 28 10:28 AM
OPKFROST PHILLIP MD ET ALCEO & ChairmanApr 27Buy10.9511,800129,157159,514,643Apr 28 07:01 AM
CNBKAFiller James J10% OwnerApr 27Buy43.2750021,635505,642Apr 27 07:58 PM
CMCTShemesh AvrahamDirectorApr 27Buy18.871202,26415,262Apr 27 07:52 PM
CMCTShemesh AvrahamDirectorApr 26Buy18.861202,26315,142Apr 27 07:52 PM
CMCTShemesh AvrahamDirectorApr 25Buy18.751018815,022Apr 27 07:52 PM
CMCTRESSLER RICHARD SDirectorApr 27Buy18.872404,52829,958Apr 27 07:51 PM
CMCTRESSLER RICHARD SDirectorApr 26Buy18.862404,52629,718Apr 27 07:51 PM
CMCTRESSLER RICHARD SDirectorApr 25Buy18.752037529,478Apr 27 07:51 PM
CMCTGarner Charles E IIChief Executive OfficerApr 27Buy18.87601,1329,603Apr 27 07:50 PM
CMCTGarner Charles E IIChief Executive OfficerApr 26Buy18.86601,1319,543Apr 27 07:50 PM
CMCTGarner Charles E IIChief Executive OfficerApr 25Buy18.755949,483Apr 27 07:50 PM
CMCTEppich KellyDirectorApr 27Buy18.87601,1324,987Apr 27 07:50 PM
CMCTEppich KellyDirectorApr 26Buy18.86601,1314,927Apr 27 07:50 PM
CMCTEppich KellyDirectorApr 25Buy18.755944,867Apr 27 07:50 PM
CMCTKuba ShaulDirectorApr 27Buy18.871202,26415,262Apr 27 07:49 PM
CMCTKuba ShaulDirectorApr 26Buy18.861202,26315,142Apr 27 07:49 PM
CMCTKuba ShaulDirectorApr 25Buy18.751018815,022Apr 27 07:49 PM
CPEdwards Peter JohnVP HR & Labour RelationsApr 25Buy147.0011471,033Apr 27 07:14 PM
UALHart Gregory LEVP & COOApr 26Buy49.902,00099,79536,466Apr 27 07:12 PM
UALKENNEDY JAMES A CDirectorApr 26Buy49.902,00099,8002,900Apr 27 07:03 PM
UALMilton Robert ADirectorApr 26Buy49.141,00049,1401,000Apr 27 06:57 PM
UALLADERMAN GERALDSVP- Finance & Acting CFOApr 27Buy48.785,000243,90540,774Apr 27 06:52 PM
UALWhitehurst James MDirectorApr 27Buy49.2310,000492,25510,000Apr 27 06:49 PM
UALBonds Michael PEVP HR and Labor RelationsApr 26Buy48.382,00096,76652,865Apr 27 06:42 PM
VIRCVIRTUE DOUGLAS AExecutive Vice PresidentApr 27Buy3.193,66711,698743,853Apr 27 06:39 PM
VIRCVIRTUE ROBERT APresident & CEO & ChairmanApr 27Buy3.193,60811,510423,525Apr 27 06:36 PM
SLMStrong Robert S.DirectorApr 25Buy6.505,00032,48530,887Apr 27 05:24 PM
MFRMBerkshire Partners Holdings LL10% OwnerApr 27Buy41.2848,8712,017,5125,196,407Apr 27 05:17 PM
MFRMBerkshire Partners Holdings LL10% OwnerApr 27Buy41.281,12946,60829,550Apr 27 05:17 PM
MFRMBerkshire Partners Holdings LL10% OwnerApr 26Buy41.5063,5322,636,7725,147,536Apr 27 05:15 PM
MFRMBerkshire Partners Holdings LL10% OwnerApr 26Buy41.501,46860,92628,957Apr 27 05:15 PM
MFRMBerkshire Partners Holdings LL10% OwnerApr 25Buy41.0848,8712,007,6745,084,004Apr 27 05:15 PM
MFRMBerkshire Partners Holdings LL10% OwnerApr 25Buy41.081,12946,38128,190Apr 27 05:15 PM
ACTGKey Marvin EChief Executive OfficerApr 25Buy4.1555,000228,058190,833Apr 27 05:13 PM
ACTGWALSH FRANK E IIIDirectorApr 25Buy4.1335,000144,55035,000Apr 27 05:01 PM
GEDIMITRIEF ALEXANDERSenior Vice PresidentApr 25Buy30.511053,20448,758Apr 27 04:52 PM
EFOICohen WilliamDirectorMar 14Buy7.881,2599,9211,259Apr 27 04:35 PM
LADBECKER THOMAS RDirectorApr 26Buy83.9814011,75765,000Apr 27 04:15 PM
PGCWaser Eric H.EVP, Head of Comm BankingApr 27Buy19.7590017,77527,207Apr 27 03:26 PM
PGCWaser Eric H.EVP, Head of Comm BankingApr 25Buy18.571001,85726,307Apr 27 03:26 PM
PGCMEYERCORD F DUFFIELDDirectorApr 26Buy19.5010,000195,04862,062Apr 27 03:14 PM
BOTJFOSTER WATT R JRDirectorApr 26Buy12.003874,64478,638Apr 27 03:09 PM
PLBCFlournoy JohnDirectorApr 25Buy9.592,00019,18051,431Apr 27 03:03 PM
BOCHGibson JosephDirectorApr 26Buy6.275,00031,35095,588Apr 27 02:03 PM
PGCKENNEDY DOUGLAS LPresident & CEOApr 26Buy19.502,00039,010174,447Apr 27 12:10 PM
PGCCARFORA JEFFREY JSEVP & Chief Financial OfficerApr 26Buy18.861,00018,86099,338Apr 27 12:08 PM
STLYGILLIAM JEFFREY STUARTDirectorApr 26Buy2.715,00013,5289,983Apr 27 11:47 AM
EGPBOLTON H ERIC JRDirectorApr 26Buy59.951,700101,9226,969Apr 27 11:39 AM
CNBKAEVANGELISTA PAUL AExecutive Vice PresidentApr 25Buy72.4153941,871Apr 27 11:36 AM
CNBKASLOANE BARRY RCEO and PresidentApr 25Buy72.411841,435Apr 27 11:35 AM
DRRX21 APRIL FUND, LTD.10% OwnerApr 26Buy1.255,500,0006,875,00019,881,546Apr 27 10:55 AM
CPPAULL MATTHEW HDirectorApr 26Buy143.891,000143,8901,000Apr 27 10:50 AM
KFSSWETS LARRY G JRCEO and PresidentApr 26Buy4.525,00022,6152,061,821Apr 27 10:50 AM
CPRXO'Keeffe Charles BDirectorApr 26Buy0.6020,00011,920412,126Apr 27 08:20 AM
RESNHolmes George BPres/Chief Commercial OfficerApr 25Buy2.998,30024,77635,300Apr 26 09:21 PM
RESNLingren TerryCEO and ChairmanApr 25Buy2.995,00014,925383,594Apr 26 08:52 PM
WESHollek Darrell EDirectorJan 15Buy46.96472,207336Apr 26 08:49 PM
WESHollek Darrell EDirectorJul 09Buy63.46332,094289Apr 26 08:49 PM
RESNFenzi NealChief Operating OfficerApr 25Buy2.995,00014,925377,717Apr 26 08:43 PM
RESNAPPEL PETER A10% OwnerApr 25Buy2.99335,000999,975335,000Apr 26 08:33 PM
RESNMAJOR JOHN EDirectorApr 25Buy2.9933,50099,99857,500Apr 26 08:09 PM
RESNFox Michael JDirectorApr 25Buy2.99335,000999,9751,035,000Apr 26 07:49 PM
RESNFox Michael JDirectorApr 25Buy2.9910,70031,94010,700Apr 26 07:49 PM
OVLYHOLDER H RANDOLPH JRDirectorApr 26Buy9.522,30021,89635,686Apr 26 07:30 PM
SMLPENERGY CAPITAL PARTNERS II, LLDirectorApr 26Buy19.9914,789295,6325,456,870Apr 26 06:41 PM
SMLPENERGY CAPITAL PARTNERS II, LLDirectorApr 25Buy19.8019,817392,3775,442,081Apr 26 06:41 PM
SMLPENERGY CAPITAL PARTNERS II, LLDirectorApr 22Buy20.1320,027403,2245,422,264Apr 26 06:41 PM
SKYFlorea Richard WChief Executive OfficerApr 25Buy10.851,50016,27520,000Apr 26 05:11 PM
ANGIMAURER MICHAEL SDirectorApr 25Buy8.2712,00099,290173,211Apr 26 05:05 PM
OVLYBarton DonDirectorApr 25Buy9.403,50032,90023,000Apr 26 04:55 PM
GRIFGamzon Rebecca D10% OwnerApr 26Buy25.981102,8583,870Apr 26 04:54 PM
GRIFGamzon Rebecca D10% OwnerApr 25Buy25.912005,1823,760Apr 26 04:54 PM
GRIFGamzon Rebecca D10% OwnerApr 22Buy25.981,06027,5393,560Apr 26 04:54 PM
GRIFGamzon MichaelPresident and CEOApr 26Buy25.981102,8583,870Apr 26 04:41 PM
GRIFGamzon MichaelPresident and CEOApr 25Buy25.912005,1823,760Apr 26 04:41 PM
GRIFGamzon MichaelPresident and CEOApr 22Buy25.981,06027,5393,560Apr 26 04:41 PM
WTFCGLABE MARLA FDirectorApr 25Buy51.7040020,6801,697Apr 26 04:36 PM
SANWWYNNEFIELD PARTNERS SMALL CAP 10% OwnerApr 22Buy4.101,3775,6461,072,659Apr 26 04:30 PM
SANWWYNNEFIELD PARTNERS SMALL CAP 10% OwnerApr 22Buy4.106232,554664,435Apr 26 04:30 PM
BLMTPetry Paul EDirectorApr 25Buy23.561,00023,5605,000Apr 26 04:27 PM
BOTJCHAPMAN ROBERT RPresidentApr 25Buy11.751872,197108,360Apr 26 02:32 PM
CPRXMCENANY PATRICK JPresident and CEOApr 26Buy0.6550,00032,4304,287,809Apr 26 02:05 PM
UBOHOatman Heather MarieSecretaryApr 22Buy13.664205,73711,722Apr 26 01:27 PM
UBOHYOUNG BRIAN DPresident/CEOApr 22Buy14.591,17817,18720,856Apr 26 01:17 PM
PKBKPANTILIONE VITO SPresident & CEOApr 22Buy13.815006,905139,689Apr 26 12:23 PM
AERICagle Gerald D.DirectorAug 28Buy16.602,00033,2008,200Apr 26 12:08 PM
AERICagle Gerald D.DirectorAug 12Buy15.465007,7296,200Apr 26 12:08 PM
AERICagle Gerald D.DirectorAug 10Buy16.381,14618,7665,700Apr 26 12:08 PM
AERICagle Gerald D.DirectorFeb 05Buy24.5450012,2704,554Apr 26 12:08 PM
AERICagle Gerald D.DirectorFeb 04Buy25.6050012,8004,054Apr 26 12:08 PM
GROWHOLMES FRANK ECEOApr 25Buy1.559291,443183,328Apr 26 11:56 AM
FSBKWOODSON J RANDYEVP-Chief Banking OfficerApr 25Buy8.508196,96216,352Apr 26 11:31 AM
FSBKGRIFFIN STEVE LDirectorApr 22Buy8.515704,8511,581Apr 26 11:17 AM
PSGVendetti Mark JExecutive Vice President / CFOApr 22Buy3.6020,00072,03420,000Apr 26 09:35 AM
ROXLAMPEN RICHARDPresident and CEOApr 25Buy0.8910,0008,9001,267,320Apr 26 09:08 AM
OPKFROST PHILLIP MD ET ALCEO & ChairmanApr 25Buy11.1215,000166,735159,502,843Apr 26 06:50 AM
UALSHAPIRO EDWARDDirectorApr 22Buy50.76780,00039,592,80016,294,711Apr 25 06:13 PM
UALSHAPIRO EDWARDDirectorApr 21Buy53.031,125,00059,658,75015,514,711Apr 25 06:13 PM
NKELECHLEITER JOHN CDirectorApr 21Buy60.181,00060,18022,682Apr 25 05:52 PM
VNCESun Cardinal, LLC10% OwnerApr 21Buy5.50146,747807,10920,928,375Apr 25 05:23 PM
VNCESCSF Cardinal, LLC10% OwnerApr 21Buy5.5048,916269,0386,976,150Apr 25 05:20 PM
VNCEKROUSE RODGER R10% OwnerApr 21Buy5.50195,6631,076,14728,334,845Apr 25 05:19 PM
VNCESun Capital Securities Offshor10% OwnerApr 21Buy5.5048,916269,0387,406,470Apr 25 05:18 PM
UALPAR INVESTMENT PARTNERS LPDirectorApr 22Buy50.76780,00039,592,80016,294,711Apr 25 05:17 PM
UALPAR INVESTMENT PARTNERS LPDirectorApr 21Buy53.031,125,00059,658,75015,514,711Apr 25 05:17 PM
VNCESUN CAPITAL PARTNERS V LP10% OwnerApr 21Buy5.50146,747807,10921,358,695Apr 25 05:16 PM
VNCELEDER MARC JDirectorApr 21Buy5.50195,6631,076,14728,334,845Apr 25 05:16 PM
open in screener